Date String (YYYY-MM-DD hh:mm:ss) UTC,Instrument flags,absolute air pressure of the measurement (hPa),sample flow rate (lpm),inlet stack bypass flow (lpm),air temperature of the measurement (°C),ambient temperature measured by the external sensor (°C),aerosol sample conditioner tube jacket temperature (°C),OPC LED temperature (°C),internal box temperature (°C),relative humidity of the measurement (%),span deviation,mass concentration of particles derived from Lorenz-Mie calculation of OPC scattering (μg/m³),mass concentration of particles derived from Lorenz-Mie calculation of OPC scattering (μg/m³),mass concentration of particles derived from Lorenz-Mie calculation of OPC scattering (μg/m³)
DateTimeUTC,F1_M11,P_M11,Q1_M11,Q2_M11,T1_M11,T2_M11,T3_M11,T4_M11,T5_M11,U1_M11,ZSPAN_M11,X0_M11,X2_M11,X1_M11
2024-02-10 16:00:00,SystemResetWarning,0826.1,4.99,000.00,018.2,017.8,000.0,026.8,020.0,20.5,0000.0,0005.70,0003.23,0002.96
2024-02-10 16:01:00,SystemResetWarning,0826.1,4.99,000.00,018.2,017.8,000.0,026.8,020.0,20.5,0000.0,0005.66,0003.23,0002.98
2024-02-10 16:02:00,SystemResetWarning,0826.0,5.00,000.00,018.2,017.8,000.0,026.8,020.0,20.6,0000.0,0005.75,0003.25,0002.99
2024-02-10 16:03:00,SystemResetWarning,0826.0,5.01,000.00,018.2,017.8,000.0,026.8,020.0,20.6,0000.0,0005.80,0003.27,0003.01
2024-02-10 16:04:00,SystemResetWarning,0826.1,5.00,000.00,018.2,017.7,000.0,026.8,020.0,20.5,0000.0,0005.67,0003.28,0003.04
2024-02-10 16:05:00,SystemResetWarning,0826.1,4.99,000.00,018.2,017.7,000.0,026.8,020.0,20.5,0000.0,0005.68,0003.30,0003.06
2024-02-10 16:06:00,SystemResetWarning,0826.1,4.99,000.00,018.2,017.7,000.0,026.8,020.0,20.5,0000.0,0005.70,0003.34,0003.09
2024-02-10 16:07:00,SystemResetWarning,0826.1,5.00,000.00,018.2,017.7,000.0,026.8,020.0,20.6,0000.0,0005.16,0003.38,0003.11
2024-02-10 16:08:00,SystemResetWarning,0826.1,5.02,000.00,018.2,017.8,000.0,026.9,020.1,20.6,0000.0,0005.09,0003.38,0003.11
2024-02-10 16:09:00,SystemResetWarning,0826.2,4.99,000.00,018.4,018.4,000.0,027.0,020.5,20.4,0000.0,0004.91,0003.35,0003.09
2024-02-10 16:10:00,SystemResetWarning,0826.2,5.00,000.00,018.6,019.2,000.0,027.1,021.0,20.1,0000.0,0004.73,0003.34,0003.07
2024-02-10 16:11:00,SystemResetWarning,0826.2,5.00,000.00,018.8,019.3,000.0,027.0,021.0,19.9,0000.0,0005.18,0003.33,0003.05
2024-02-10 16:12:00,SystemResetWarning,0826.2,4.99,000.00,018.8,019.1,000.0,027.0,020.8,19.8,0000.0,0005.43,0003.32,0003.05
2024-02-10 16:13:00,SystemResetWarning,0826.2,5.01,000.00,018.8,018.9,000.0,027.0,020.7,19.7,0000.0,0005.24,0003.29,0003.03
2024-02-10 16:14:00,SystemResetWarning,0826.2,5.00,000.00,018.8,018.8,000.0,027.0,020.5,19.7,0000.0,0005.63,0003.29,0003.04
2024-02-10 16:15:00,SystemResetWarning,0826.2,5.01,000.00,018.7,018.6,000.0,027.0,020.4,19.7,0000.0,0005.86,0003.29,0003.04
2024-02-10 16:16:00,SystemResetWarning,0826.2,4.99,000.00,018.7,018.5,000.0,027.0,020.4,19.6,0000.0,0006.01,0003.29,0003.03
2024-02-10 16:17:00,SystemResetWarning,0826.2,4.99,000.00,018.7,018.4,000.0,027.0,020.3,19.6,0000.0,0006.09,0003.27,0003.01
2024-02-10 16:18:00,SystemResetWarning,0826.2,5.00,000.00,018.7,018.3,000.0,027.0,020.3,19.7,0000.0,0005.98,0003.25,0002.98
2024-02-10 16:19:00,SystemResetWarning,0826.2,5.01,000.00,018.7,018.3,000.0,027.0,020.3,19.7,0000.0,0006.06,0003.27,0002.95
2024-02-10 16:20:00,SystemResetWarning,0826.2,5.00,000.00,018.6,018.2,000.0,027.0,020.3,19.6,0000.0,0006.28,0003.26,0002.93
2024-02-10 16:21:00,SystemResetWarning,0826.2,5.01,000.00,018.6,018.2,000.0,027.0,020.3,19.6,0000.0,0006.51,0003.23,0002.90
2024-02-10 16:22:00,SystemResetWarning,0826.2,5.00,000.00,018.6,018.1,000.0,027.0,020.3,19.6,0000.0,0005.84,0003.19,0002.86
2024-02-10 16:23:00,SystemResetWarning,0826.2,4.99,000.00,018.6,018.1,000.0,027.0,020.3,19.6,0000.0,0005.46,0003.17,0002.83
2024-02-10 16:24:00,SystemResetWarning,0826.2,5.00,000.00,018.6,018.1,000.0,027.0,020.3,19.5,0000.0,0005.50,0003.18,0002.80
2024-02-10 16:25:00,SystemResetWarning,0826.2,5.00,000.00,018.5,018.1,000.0,027.0,020.2,19.4,0000.0,0005.18,0003.15,0002.76
2024-02-10 16:26:00,SystemResetWarning,0826.2,5.01,000.00,018.5,018.1,000.0,027.0,020.2,19.5,0000.0,0005.20,0003.13,0002.72
2024-02-10 16:27:00,SystemResetWarning,0826.2,5.01,000.00,018.5,018.0,000.0,027.0,020.2,19.5,0000.0,0005.29,0003.09,0002.69
2024-02-10 16:28:00,SystemResetWarning,0826.2,5.01,000.00,018.5,018.0,000.0,027.0,020.2,19.6,0000.0,0005.01,0003.01,0002.66
2024-02-10 16:29:00,SystemResetWarning,0826.2,5.00,000.00,018.5,018.0,000.0,027.0,020.2,19.6,0000.0,0004.94,0002.97,0002.63
2024-02-10 16:30:00,SystemResetWarning,0826.2,4.99,000.00,018.5,018.0,000.0,027.0,020.2,19.7,0000.0,0005.20,0002.88,0002.59
2024-02-10 16:31:00,SystemResetWarning,0826.2,5.00,000.00,018.4,018.0,000.0,027.0,020.2,19.7,0000.0,0005.10,0002.88,0002.60
2024-02-10 16:32:00,SystemResetWarning,0826.2,4.99,000.00,018.4,018.0,000.0,026.9,020.1,19.6,0000.0,0004.92,0002.93,0002.62
2024-02-10 16:33:00,SystemResetWarning,0826.2,5.01,000.00,018.4,018.0,000.0,026.9,020.1,19.7,0000.0,0005.31,0003.02,0002.66
2024-02-10 16:34:00,SystemResetWarning,0826.2,5.01,000.00,018.4,018.0,000.0,026.9,020.1,19.8,0000.0,0005.50,0003.07,0002.67
2024-02-10 16:35:00,SystemResetWarning,0826.2,5.00,000.00,018.4,017.9,000.0,026.9,020.1,19.9,0000.0,0005.45,0003.08,0002.71
2024-02-10 16:36:00,SystemResetWarning,0826.2,4.99,000.00,018.4,017.9,000.0,026.9,020.1,19.9,0000.0,0005.68,0003.13,0002.75
2024-02-10 16:37:00,SystemResetWarning,0826.2,5.00,000.00,018.4,017.9,000.0,026.9,020.1,20.0,0000.0,0005.39,0003.13,0002.77
2024-02-10 16:38:00,SystemResetWarning,0826.3,5.00,000.00,018.4,017.9,000.0,026.9,020.1,20.1,0000.0,0005.14,0003.17,0002.81
2024-02-10 16:39:00,SystemResetWarning,0826.2,5.00,000.00,018.3,017.9,000.0,026.9,020.0,20.1,0000.0,0005.74,0003.20,0002.85
2024-02-10 16:40:00,SystemResetWarning,0826.3,5.00,000.00,018.3,017.9,000.0,026.9,020.0,20.0,0000.0,0005.93,0003.23,0002.90
2024-02-10 16:41:00,SystemResetWarning,0826.3,5.01,000.00,018.3,017.9,000.0,026.9,020.0,20.0,0000.0,0005.65,0003.29,0002.97
2024-02-10 16:42:00,SystemResetWarning,0826.2,5.00,000.00,018.3,017.9,000.0,026.8,020.0,20.0,0000.0,0005.60,0003.31,0003.00
2024-02-10 16:43:00,SystemResetWarning,0826.2,4.99,000.00,018.3,017.9,000.0,026.8,020.0,20.1,0000.0,0005.62,0003.33,0003.03
2024-02-10 16:44:00,SystemResetWarning,0826.2,5.00,000.00,018.3,017.8,000.0,026.9,020.0,20.0,0000.0,0005.47,0003.35,0003.08
2024-02-10 16:45:00,SystemResetWarning,0826.2,5.00,000.00,018.3,017.8,000.0,026.8,020.0,20.0,0000.0,0005.63,0003.38,0003.11
2024-02-10 16:46:00,SystemResetWarning,0826.2,5.00,000.00,018.3,017.8,000.0,026.8,020.0,20.1,0000.0,0005.88,0003.39,0003.13
2024-02-10 16:47:00,SystemResetWarning,0826.2,5.00,000.00,018.3,017.8,000.0,026.8,020.0,20.2,0000.0,0005.77,0003.39,0003.14
2024-02-10 16:48:00,SystemResetWarning,0826.2,5.00,000.00,018.3,017.8,000.0,026.8,020.0,20.2,0000.0,0005.86,0003.42,0003.15
2024-02-10 16:49:00,SystemResetWarning,0826.2,5.00,000.00,018.3,017.8,000.0,026.8,020.0,20.0,0000.0,0005.86,0003.42,0003.16
2024-02-10 16:50:00,SystemResetWarning,0826.2,5.00,000.00,018.3,017.8,000.0,026.8,020.0,19.9,0000.0,0005.65,0003.44,0003.16
2024-02-10 16:51:00,SystemResetWarning,0826.2,5.00,000.00,018.2,017.8,000.0,026.8,020.0,19.8,0000.0,0005.46,0003.45,0003.17
2024-02-10 16:52:00,SystemResetWarning,0826.2,5.00,000.00,018.2,017.8,000.0,026.8,020.0,19.8,0000.0,0005.37,0003.42,0003.17
2024-02-10 16:53:00,SystemResetWarning,0826.2,5.00,000.00,018.2,017.8,000.0,026.8,020.0,19.8,0000.0,0005.28,0003.39,0003.15
2024-02-10 16:54:00,SystemResetWarning,0826.2,5.00,000.00,018.2,017.8,000.0,026.8,020.0,19.9,0000.0,0005.25,0003.38,0003.14
2024-02-10 16:55:00,SystemResetWarning,0826.2,5.00,000.00,018.2,017.8,000.0,026.8,020.0,19.8,0000.0,0005.22,0003.35,0003.12
2024-02-10 16:56:00,SystemResetWarning,0826.2,5.00,000.00,018.2,017.8,000.0,026.8,020.0,19.8,0000.0,0005.55,0003.31,0003.09
2024-02-10 16:57:00,SystemResetWarning,0826.2,5.00,000.00,018.2,017.8,000.0,026.8,020.0,19.7,0000.0,0005.35,0003.27,0003.05
2024-02-10 16:58:00,SystemResetWarning,0826.2,5.00,000.00,018.2,017.8,000.0,026.8,020.0,19.8,0000.0,0005.31,0003.26,0003.04
2024-02-10 16:59:00,SystemResetWarning,0826.2,5.00,000.00,018.2,017.8,000.0,026.8,020.0,19.9,0000.0,0005.24,0003.25,0003.01
